User: anonymous   Login
Location: Veyrier
(46.1830°N, 6.2000°E)
Time: 06:16:10
(UTC+02:00)
Language:

Iridium 98 - Orbit

View from above orbital plane
View from above orbital plane
View from above satellite
View from above satellite

Ground track
Ground track

The orbit data is extracted from the following two-line orbital elements,

1 27451U 02031B   15142.49363810  .00000017  00000-0 -10401-5 0  9992
2 27451 086.3944 338.5346 0002237 093.8548 286.3708 14.34215770682844
Epoch (UTC): 22 May 2015 11:50:50
Eccentricity: 0.0002237
inclination: 86.3944°
perigee height: 776 km
apogee height: 779 km
right ascension of ascending node: 338.5346°
argument of perigee: 93.8548°
revolutions per day: 14.34215770
mean anomaly at epoch: 286.3708°
orbit number at epoch: 68284

The dashed part of the orbit path shows where the satellite is in the earth's shadow,  

DLR